Regional Weather Roundup
Issued by NWS Upton, NY

Current Version | Previous Version | Text Only | Print | Product List | Glossary On
Versions: 1 2 3 4 5 6 7 8 9 10 11 12 13 14 15 16 17 18 19 20 21 22 23 24 25 26 27 28 29 30 31 32 33 34 35 36 37 38 39 40 41 42 43 44 45 46 47 48 49 50
000 ASUS41 KOKX 200908 RWROKX REGIONAL WEATHER ROUNDUP NATIONAL WEATHER SERVICE NEW YORK NY 500 AM EDT SUN AUG 20 2017 NOTE: "FAIR" INDICATES FEW OR NO CLOUDS BELOW 12,000 FEET WITH NO SIGNIFICANT WEATHER AND/OR OBSTRUCTIONS TO VISIBILITY. NYZ071-072-176-178-NJZ106-104-201000- NEW YORK CITY METRO AREA CITY SKY/WX TMP DP RH WIND PRES REMARKS Central Park CLEAR 71 62 73 W3 29.98R Bronx Bot Gard N/A 70 59 68 W6 29.98R LaGuardia APRT CLEAR 72 64 76 NW15 29.94R Kennedy INTL PTCLDY 72 64 76 W8 29.96R Breezy Point N/A 68 N/A N/A W9 N/A Newark/Liberty CLEAR 69 62 78 W6 29.96R Teterboro CLEAR 69 62 78 W6 29.95R $$ NYZ177-179-078>081-201000- LONG ISLAND NEW YORK CITY SKY/WX TMP DP RH WIND PRES REMARKS Jones Beach N/A 72 N/A N/A NW10 N/A Matinecock PT N/A 72 N/A N/A W15 N/A Farmingdale CLEAR 71 61 70 NW5 29.94R MacArthur/ISP CLEAR 71 63 75 W9 29.92R Shirley CLEAR 72 66 81 W7 29.92R Mt Sinai Harb N/A N/A N/A N/A W8G14 N/A Westhampton CLEAR 69 64 84 NW6 29.93R East Hampton FAIR 70 67 90 NW5 29.90R Montauk N/A 74 70 87 W6 29.91R $$ NYZ052-065-067-201000- HUDSON VALLEY CITY SKY/WX TMP DP RH WIND PRES REMARKS White Plains CLEAR 69 60 73 W15 29.95R Larchmont Harb N/A 70 N/A N/A W10 N/A Croton On Huds N/A 70 N/A N/A NW3 N/A Newburgh CLEAR 64 63 94 W12 29.97R Montgomery CLEAR 62 60 93 CALM 29.97R Poughkeepsie CLEAR 65 60 84 SW3 29.94R Albany PTCLDY 63 59 87 CALM 29.94R $$ NJZ001-105-106-008-010-013-015-019>022-104-201000- NEW JERSEY CITY SKY/WX TMP DP RH WIND PRES REMARKS Newark/Liberty CLEAR 69 62 78 W6 29.96R Teterboro CLEAR 69 62 78 W6 29.95R Caldwell CLEAR 67 63 87 SW3 29.98R Somerville CLEAR 65 62 90 W3 29.97R Linden FAIR 68 61 78 W3 29.97R Perth Amboy N/A 66 N/A N/A W10 N/A Sussex CLEAR 60 60 100 CALM 29.99R Andover N/A 62 61 96 CALM 30.00R Trenton CLEAR 65 61 87 NW5 29.99R Millville CLEAR 67 64 90 W3 30.00R Atlantic City CLEAR 69 60 73 W7 29.99R Wrightstown CLEAR 66 60 82 NW8 29.96R Toms River CLEAR 67 61 81 W10 29.99R Belmar CLEAR 66 61 84 W9 29.98R $$ PAZ047>061-062-071-201000- EASTERN PENNSYLVANIA CITY SKY/WX TMP DP RH WIND PRES REMARKS Philadelphia CLEAR 70 59 68 W8 30.01R Allentown CLEAR 63 59 87 W5 30.01R Scranton CLOUDY 63 62 97 SW7 30.03R $$ CTZ002-004>006-009-010-012-RIZ004-006-007-MAZ004-011-015-201000- SOUTHERN NEW ENGLAND IN CT CITY SKY/WX TMP DP RH WIND PRES REMARKS Bradley INTL PTCLDY 68 60 75 NW5 29.91R Hartford CLEAR 71 62 73 NW8 29.91R Danbury CLEAR 63 61 93 CALM 29.96R Wtrbury/Oxford CLEAR 65 62 90 NW3 29.95R Norwalk Harbor N/A 70 N/A N/A W14 N/A Bridgeport CLEAR 70 61 73 W7 29.92R Meriden CLEAR 64 63 96 CALM 29.92R New Haven CLEAR 71 62 73 NW5 29.92R Chester FAIR 70 64 83 NW5 29.92R Groton MOCLDY 71 67 87 NW6 29.89R Wilimantic CLEAR 64 63 96 CALM 29.91R IN RI CITY SKY/WX TMP DP RH WIND PRES REMARKS Providence CLEAR 70 68 93 W7 29.88R Block Island CLEAR 71 69 93 SW8 29.89S Westerly PTCLDY 71 69 93 CALM 29.90R IN MA CITY SKY/WX TMP DP RH WIND PRES REMARKS Boston PTCLDY 73 64 73 W8 29.85R Worcester PTCLDY 66 58 75 W10 29.91R Westfield CLEAR 69 60 73 NW13 29.91R Provincetown PTCLDY 69 67 93 S6 29.86R Nantucket CLEAR 68 68 100 SW7 29.88R FOG $$ ANZ330-335-338-340-345-350-353-355-201000- COASTAL MARINE OBSERVATIONS STATION/POSITION TIME SKY/WX TEMP WIND PRES VSBY WAVE AIR SEA DIR/SP/G HT/PER (UTC) (F) (DEG/KT/KT) (MB) (MI) (FT/S) NY HARB ENTRANCE 0750 73 76 290/ 17/ 21 1012.4 3/ 6 GREAT SOUTH BAY 0815 74 78 300/ 12/ 14 N/A 23 SSW MONTAUK P 0750 74 72 1012.3 3/ 6 15 E BARNEGAT LI 0830 77 N/A 3/ 6 HUDSON CANYON 0750 77 75 250/ 14/ 17 1012.6 3/ 6 KINGS POINT 0830 72 74 330/ 11/ 14 1013.8 EXECUTION ROCKS NOT AVBL WESTERN LI SOUND NOT AVBL CENTRAL LI SOUND NOT AVBL EASTERN LI SOUND NOT AVBL ROBBINS REEF 0830 270/ 11/ 13 1014.8 $$ >>>>>>>>>>>>>>>>>>>>>>>>>>>> KEY <<<<<<<<<<<<<<<<<<<<<<<<<<< > < > SKY/WX - Sky Condition/Present Weather < > TMP - Temperature in Fahrenheit < > DP - Dew Point in Fahrenheit < > RH - Relative Humidity in Percent < > WIND - Direction (from) and Speed in MPH < > PRES - Mean Sea Level Pressure (inches of Hg) < > WCI - Wind Chill Index < > VSB - VISIBILITY IN MILES < > HX - HEAT INDEX < > TC - TEMPERATURE IN CELSIUS < > VRB - VARIABLE WIND DIRECTION < > < >>>>>>>>>>>>>>>>>>>>>>>>>>>> KEY <<<<<<<<<<<<<<<<<<<<<<<<<<<

USA.gov is the U.S. government's official web portal to all federal, state and local government web resources and services.